FLOCK 3R-12 (43724 NORAD) Tracking and Keplerian Element Data

This shows tracking and keplerian element data for the satellite.

Feedback or suggestion? Click here.




ElementValue
Catalog43724
NameFLOCK 3R-12
Epoch Orbit172
Epoch Day344.52592361
Epoch Year2018
RAAN49.5286
Inclination97.4847
Eccentricity0.0016568
Argument of Perigee284.1491
Mean Anonmoly183.954
Mean Motion15.25964061
Decay Rate2.607E-05
L11 43724U 18096F 18344.52592361 .00002607 00000-0 10407-3 0 9997
L22 43724 97.4847 49.5286 0016568 284.1491 183.9540 15.25964061 1729

Live tracking and technical data element details for FLOCK 3R-12 (NORAD 43724). FLOCK 3R-12 can be tracked NOW for your location showing map with azimuth and elevation plus other details from your city location.

Track the satellite on the map from your city or location and see movement details for azimuth, elevation, latitude, longitude, range, height, and movement on the map or in text.







IsCatalogInMostPopularTable: catalog: 43724, numindb: 6
Update: records affected: 1



GetName: 43724 FLOCK 3R-12

Hit Count: updated at: Tue, 11 Dec 2018 03:24:03 GMT